Centerville, IA

2:43 PM CDT on September 29, 2016 (GMT -0500)
Centerville Municipal

Weather History for KTVK - December, 2011

Change the Weather History Date:

Saturday, December 3, 2011

  Actual Average Record
Temperature  
Mean Temperature 46 °F -  
Max Temperature 51 °F 38 °F 69 °F (2012)
Min Temperature 41 °F 21 °F 0 °F (1985)
Degree Days  
Heating Degree Days 19    
Moisture  
Dew Point 45 °F    
Average Humidity 97    
Maximum Humidity 100    
Minimum Humidity 81    
Precipitation  
Precipitation 0.00 in - - ()
Sea Level Pressure  
Sea Level Pressure 30.03 in    
Wind  
Wind Speed 10 mph (SSE)    
Max Wind Speed 18 mph    
Max Gust Speed 26 mph    
Visibility 5 miles    
Events Rain    
Averages and records for this station are not official NWS values.
T = Trace of Precipitation, MM = Missing Value Source: NWS Daily Summary

Daily Weather History Graph

Daily Weather History Graph

Search for Another Location

Airport or City:

Trip Planner

Search our weather history database for the weather conditions in past years. The results will help you decide how hot, cold, wet, or windy it might be!

Date:

Astronomy

Dec. 03, 2011 Rise Set
Actual Time 7:17 AM CST 4:44 PM CST
Civil Twilight 6:47 AM CST 5:15 PM CST
Nautical Twilight 6:13 AM CST 5:49 PM CST
Astronomical Twilight 5:40 AM CST 6:22 PM CST
Moon 12:51 PM CST (12/3) 12:44 AM CST (12/3)
Length of Visible Light 10h 27m
Length of Day
9h 26m
Waxing Gibbous, 63% of the Moon is Illuminated
Dec 3
Waxing Gibbous
Dec 10
Full
Dec 17
Last Quarter
Dec 24
New
Jan 1
First Quarter

Hourly Weather History & Observations

Time (CST) Temp. Windchill Dew Point Humidity Pressure Visibility Wind Dir Wind Speed Gust Speed Precip Events Conditions
12:15 AM 41.0 °F 33.9 °F 35.6 °F 81% 30.16 in 9.0 mi SSE 12.7 mph - N/A   Overcast
12:35 AM 41.0 °F 34.3 °F 37.4 °F 87% 30.15 in 5.0 mi SSE 11.5 mph - N/A   Overcast
12:55 AM 41.0 °F 34.3 °F 37.4 °F 87% 30.15 in 4.0 mi SSE 11.5 mph - N/A   Overcast
1:15 AM 41.0 °F 34.3 °F 39.2 °F 93% 30.14 in 4.0 mi South 11.5 mph - N/A   Overcast
1:55 AM 41.0 °F 33.5 °F 39.2 °F 93% 30.14 in 3.0 mi South 13.8 mph - N/A   Overcast
2:15 AM 41.0 °F 33.9 °F 41.0 °F 100% 30.13 in 3.0 mi South 12.7 mph - N/A   Overcast
2:55 AM 42.8 °F 36.2 °F 41.0 °F 93% 30.11 in 5.0 mi South 12.7 mph - N/A   Overcast
3:15 AM 42.8 °F 36.2 °F 41.0 °F 93% 30.12 in 6.0 mi South 12.7 mph - N/A Rain Light Rain
3:35 AM 42.8 °F 36.2 °F 41.0 °F 93% 30.13 in 6.0 mi South 12.7 mph - N/A Rain Light Rain
3:55 AM 42.8 °F 37.0 °F 41.0 °F 93% 30.13 in 7.0 mi South 10.4 mph - N/A Rain Light Rain
4:15 AM 42.8 °F 37.5 °F 42.8 °F 100% 30.13 in 5.0 mi South 9.2 mph - N/A   Overcast
4:35 AM 44.6 °F 39.2 °F 42.8 °F 93% 30.13 in 5.0 mi South 10.4 mph - N/A   Overcast
4:55 AM 44.6 °F 39.7 °F 42.8 °F 93% 30.14 in 5.0 mi SW 9.2 mph - N/A   Overcast
5:15 AM 44.6 °F 40.7 °F 44.6 °F 100% 30.16 in 4.0 mi WSW 6.9 mph - N/A Rain Light Rain
5:35 AM 44.6 °F 43.1 °F 44.6 °F 100% 30.16 in 3.0 mi West 3.5 mph - N/A Rain Light Rain
5:55 AM 44.6 °F - 44.6 °F 100% 30.16 in 4.0 mi Calm Calm - N/A Rain Light Rain
6:15 AM 42.8 °F 40.1 °F 42.8 °F 100% 30.16 in 7.0 mi South 4.6 mph - N/A   Overcast
6:35 AM 42.8 °F - 42.8 °F 100% 30.17 in 3.0 mi Calm Calm - N/A Rain Light Rain
6:55 AM 41.0 °F - 41.0 °F 100% 30.17 in 2.0 mi Calm Calm - N/A Rain Light Rain
7:15 AM 42.8 °F 41.1 °F 42.8 °F 100% 30.18 in 3.0 mi SSW 3.5 mph - N/A Rain Light Rain
7:35 AM 42.8 °F 41.1 °F 42.8 °F 100% 30.16 in 3.0 mi SSE 3.5 mph - N/A Rain Light Rain
7:55 AM 41.0 °F 39.0 °F 41.0 °F 100% 30.15 in 1.2 mi ESE 3.5 mph - N/A Rain Light Rain
8:15 AM 42.8 °F 41.1 °F 42.8 °F 100% 30.16 in 1.2 mi SE 3.5 mph - N/A Rain Light Rain
8:35 AM 42.8 °F 40.1 °F 42.8 °F 100% 30.16 in 1.2 mi SE 4.6 mph - N/A Rain Light Rain
8:55 AM 42.8 °F 40.1 °F 42.8 °F 100% 30.15 in 1.0 mi ESE 4.6 mph - N/A Rain Light Rain
9:15 AM 42.8 °F 39.3 °F 42.8 °F 100% 30.14 in 1.8 mi ESE 5.8 mph - N/A Rain Light Rain
9:35 AM 44.6 °F 40.7 °F 44.6 °F 100% 30.14 in 1.8 mi SE 6.9 mph - N/A Rain Light Rain
9:55 AM 44.6 °F 40.7 °F 44.6 °F 100% 30.12 in 2.5 mi SE 6.9 mph - N/A Rain Light Rain
10:15 AM 44.6 °F 40.7 °F 44.6 °F 100% 30.10 in 3.0 mi SE 6.9 mph - N/A Rain Light Rain
10:35 AM 44.6 °F 40.7 °F 44.6 °F 100% 30.08 in 5.0 mi SE 6.9 mph - N/A Rain Light Rain
10:55 AM 44.6 °F 39.7 °F 44.6 °F 100% 30.09 in 9.0 mi SSE 9.2 mph - N/A   Overcast
11:15 AM 44.6 °F 37.8 °F 44.6 °F 100% 30.08 in 10.0 mi SSE 15.0 mph 20.7 mph N/A   Overcast
11:35 AM 46.4 °F 40.7 °F 46.4 °F 100% 30.05 in 10.0 mi SSE 12.7 mph - N/A   Overcast
11:55 AM 46.4 °F 41.5 °F 46.4 °F 100% 30.01 in 10.0 mi SE 10.4 mph - N/A   Mostly Cloudy
12:15 PM 46.4 °F 41.9 °F 46.4 °F 100% 30.00 in 10.0 mi SSE 9.2 mph - N/A   Scattered Clouds
12:35 PM 46.4 °F 41.1 °F 44.6 °F 93% 29.97 in 10.0 mi SSE 11.5 mph - N/A   Scattered Clouds
12:55 PM 48.2 °F - 44.6 °F 87% 29.97 in 10.0 mi SSE 11.5 mph - N/A   Partly Cloudy
1:15 PM 48.2 °F - 42.8 °F 82% 30.00 in 10.0 mi South 9.2 mph - N/A   Scattered Clouds
1:35 PM 48.2 °F - 44.6 °F 87% 29.99 in 10.0 mi South 5.8 mph - N/A   Partly Cloudy
1:55 PM 48.2 °F - 44.6 °F 87% 29.95 in 10.0 mi SE 6.9 mph - N/A   Scattered Clouds
2:15 PM 48.2 °F - 44.6 °F 87% 29.93 in 10.0 mi SE 8.1 mph - N/A   Mostly Cloudy
2:35 PM 48.2 °F - 44.6 °F 87% 29.93 in 8.0 mi SE 11.5 mph - N/A Rain Light Rain
2:55 PM 46.4 °F 41.1 °F 44.6 °F 93% 29.92 in 5.0 mi SE 11.5 mph - N/A Rain Light Rain
3:15 PM 46.4 °F 41.1 °F 44.6 °F 93% 29.91 in 1.5 mi SE 11.5 mph - N/A Rain Light Rain
3:35 PM 46.4 °F 41.1 °F 46.4 °F 100% 29.90 in 4.0 mi SE 11.5 mph - N/A   Overcast
3:55 PM 46.4 °F 40.7 °F 46.4 °F 100% 29.87 in 2.0 mi SE 12.7 mph 20.7 mph N/A Rain Light Rain
4:15 PM 48.2 °F - 48.2 °F 100% 29.86 in 3.0 mi SSE 16.1 mph - N/A Rain Light Rain
4:35 PM 48.2 °F - 48.2 °F 100% 29.85 in 5.0 mi SE 16.1 mph 21.9 mph N/A   Overcast
4:55 PM 48.2 °F - 48.2 °F 100% 29.84 in 5.0 mi SSE 17.3 mph 25.3 mph N/A Rain Light Rain
5:55 PM 50.0 °F - 50.0 °F 100% 29.83 in 4.0 mi SSE 18.4 mph 26.5 mph N/A Rain Light Rain
6:15 PM 50.0 °F - 50.0 °F 100% 29.83 in 5.0 mi SSE 17.3 mph 24.2 mph N/A Rain Light Rain
6:35 PM 50.0 °F - 50.0 °F 100% 29.83 in 4.0 mi South 12.7 mph - N/A Rain Light Rain
6:55 PM 50.0 °F - 50.0 °F 100% 29.83 in 2.5 mi South 12.7 mph 19.6 mph N/A Rain Light Rain
7:15 PM 50.0 °F - 50.0 °F 100% 29.83 in 2.0 mi South 15.0 mph - N/A Rain Light Rain
7:35 PM 50.0 °F - 50.0 °F 100% 29.82 in 2.0 mi South 13.8 mph 23.0 mph N/A Rain Light Rain
7:55 PM 51.8 °F - 51.8 °F 100% 29.82 in 3.0 mi South 15.0 mph 24.2 mph N/A Rain Light Rain
8:15 PM 51.8 °F - 51.8 °F 100% 29.81 in 5.0 mi South 15.0 mph - N/A Rain Light Rain
8:35 PM 51.8 °F - 51.8 °F 100% 29.81 in 3.0 mi South 16.1 mph - N/A   Overcast
8:55 PM 51.8 °F - 51.8 °F 100% 29.81 in 3.0 mi South 15.0 mph 20.7 mph N/A Rain Light Rain
9:35 PM 48.2 °F - 48.2 °F 100% 29.82 in 2.0 mi NW 16.1 mph - N/A Rain Heavy Rain
9:55 PM 46.4 °F 40.7 °F 46.4 °F 100% 29.82 in 5.0 mi NW 12.7 mph - N/A Rain Light Rain
10:15 PM 44.6 °F 39.7 °F 44.6 °F 100% 29.83 in 10.0 mi NW 9.2 mph - N/A   Overcast
10:35 PM 44.6 °F 38.4 °F 44.6 °F 100% 29.83 in 10.0 mi NW 12.7 mph - N/A   Overcast
10:55 PM 41.0 °F 34.7 °F 41.0 °F 100% 29.85 in 8.0 mi NW 10.4 mph - N/A Rain Light Rain
11:15 PM 41.0 °F 32.8 °F 41.0 °F 100% 29.86 in 8.0 mi NW 16.1 mph - N/A   Overcast
11:35 PM 39.2 °F 30.5 °F 39.2 °F 100% 29.87 in 10.0 mi NW 16.1 mph - N/A   Overcast
11:55 PM 37.4 °F 30.8 °F 37.4 °F 100% 29.87 in 3.0 mi NW 9.2 mph - N/A   Overcast